Rochester, MN

7:32 AM CST on February 24, 2017 (GMT -0600)
Rochester/St. Mary\'s Hospita

Weather History for K9MN - September, 2013

Change the Weather History Date:

Wednesday, September 11, 2013

  Actual Average (KRST) Record (KRST)
Temperature  
Mean Temperature 72 °F -  
Max Temperature 81 °F 74 °F 94 °F (1931)
Min Temperature 65 °F 50 °F 24 °F (1917)
Cooling Degree Days 8    
Growing Degree Days 22 (Base 50)    
Moisture  
Dew Point 57 °F    
Average Humidity 61    
Maximum Humidity 90    
Minimum Humidity 31    
Precipitation  
Precipitation 0.00 in - - ()
Sea Level Pressure  
Sea Level Pressure 30.04 in    
Wind  
Wind Speed 6 mph (West)    
Max Wind Speed 15 mph    
Max Gust Speed 26 mph    
Visibility 10 miles    
Events      
Averages and records for this station are not official NWS values.
T = Trace of Precipitation, MM = Missing Value Source: NWS Daily Summary

Daily Weather History Graph

Daily Weather History Graph

Search for Another Location

Airport or City:

Trip Planner

Search our weather history database for the weather conditions in past years. The results will help you decide how hot, cold, wet, or windy it might be!

Date:

Astronomy

Sep. 11, 2013 Rise Set
Actual Time 6:44 AM CDT 7:27 PM CDT
Civil Twilight 6:15 AM CDT 7:56 PM CDT
Nautical Twilight 5:41 AM CDT 8:30 PM CDT
Astronomical Twilight 5:05 AM CDT 9:06 PM CDT
Moon 1:27 PM CDT (9/11) 11:10 PM CDT (9/11)
Length of Visible Light 13h 40m
Length of Day
12h 42m
Waxing Crescent, 39% of the Moon is Illuminated
Sep 11
Waxing Crescent
Sep 12
First Quarter
Sep 19
Full
Sep 26
Last Quarter
Oct 4
New

Hourly Weather History & Observations

Time (CDT) Temp. Dew Point Humidity Pressure Visibility Wind Dir Wind Speed Gust Speed Precip Events Conditions
12:13 AM 70.7 °F 60.8 °F 71% 30.00 in 10.0 mi West 6.9 mph - N/A   Clear
12:34 AM 70.2 °F 60.8 °F 72% 30.01 in 10.0 mi West 5.8 mph - N/A   Clear
12:54 AM 70.0 °F 60.8 °F 73% 30.01 in 10.0 mi Calm Calm - N/A   Scattered Clouds
1:13 AM 69.3 °F 61.2 °F 75% 30.02 in 10.0 mi West 4.6 mph - N/A   Scattered Clouds
1:34 AM 69.3 °F 61.2 °F 75% 30.02 in 10.0 mi West 4.6 mph - N/A   Mostly Cloudy
1:54 AM 68.9 °F 61.3 °F 77% 30.02 in 10.0 mi WSW 4.6 mph - N/A   Mostly Cloudy
2:13 AM 68.9 °F 61.7 °F 78% 30.03 in 10.0 mi WSW 4.6 mph - N/A   Scattered Clouds
2:34 AM 68.5 °F 61.7 °F 79% 30.02 in 10.0 mi West 4.6 mph - N/A   Clear
2:53 AM 68.2 °F 61.7 °F 80% 30.02 in 10.0 mi West 3.5 mph - N/A   Clear
3:13 AM 68.0 °F 61.9 °F 81% 30.03 in 10.0 mi West 4.6 mph - N/A   Clear
3:34 AM 67.5 °F 61.9 °F 82% 30.02 in 10.0 mi West 4.6 mph - N/A   Clear
3:53 AM 67.5 °F 62.1 °F 83% 30.02 in 10.0 mi WSW 3.5 mph - N/A   Clear
4:13 AM 67.3 °F 62.1 °F 83% 30.03 in 10.0 mi West 4.6 mph - N/A   Clear
4:34 AM 67.3 °F 62.2 °F 84% 30.04 in 10.0 mi Calm Calm - N/A   Clear
4:53 AM 66.7 °F 62.4 °F 86% 30.05 in 10.0 mi Calm Calm - N/A   Clear
5:13 AM 67.1 °F 62.1 °F 84% 30.05 in 10.0 mi WSW 3.5 mph - N/A   Scattered Clouds
5:34 AM 66.6 °F 62.6 °F 87% 30.05 in 10.0 mi South 3.5 mph - N/A   Mostly Cloudy
5:53 AM 66.2 °F 63.1 °F 90% 30.06 in 10.0 mi SSW 3.5 mph - N/A   Scattered Clouds
6:13 AM 66.2 °F 63.0 °F 89% 30.05 in 10.0 mi South 3.5 mph - N/A   Clear
6:34 AM 66.2 °F 62.8 °F 89% 30.05 in 10.0 mi SW 3.5 mph - N/A   Clear
6:53 AM 66.2 °F 62.6 °F 88% 30.06 in 10.0 mi Calm Calm - N/A   Clear
7:13 AM 65.7 °F 62.6 °F 90% 30.06 in 10.0 mi Calm Calm - N/A   Clear
7:34 AM 65.5 °F 62.6 °F 90% 30.06 in 10.0 mi Calm Calm - N/A   Clear
7:53 AM 65.8 °F 62.6 °F 89% 30.06 in 10.0 mi Calm Calm - N/A   Clear
8:14 AM 65.8 °F 62.8 °F 90% 30.06 in 10.0 mi Calm Calm - N/A   Clear
8:34 AM 66.4 °F 63.0 °F 89% 30.06 in 10.0 mi Calm Calm - N/A   Clear
8:53 AM 67.1 °F 63.0 °F 87% 30.06 in 10.0 mi Calm Calm - N/A   Clear
9:14 AM 68.4 °F 63.0 °F 83% 30.06 in 10.0 mi Calm Calm - N/A   Clear
9:34 AM 69.1 °F 62.1 °F 78% 30.07 in 10.0 mi WSW 5.8 mph - N/A   Clear
9:53 AM 70.3 °F 61.7 °F 74% 30.07 in 10.0 mi WSW 5.8 mph - N/A   Clear
10:14 AM 70.9 °F 61.3 °F 72% 30.07 in 10.0 mi WSW 5.8 mph - N/A   Clear
10:34 AM 71.8 °F 61.9 °F 71% 30.07 in 10.0 mi SW 4.6 mph - N/A   Clear
10:53 AM 73.6 °F 60.3 °F 63% 30.07 in 10.0 mi SW 8.1 mph - N/A   Clear
11:14 AM 75.2 °F 56.8 °F 53% 30.07 in 10.0 mi West 6.9 mph - N/A   Clear
11:34 AM 76.8 °F 57.0 °F 50% 30.06 in 10.0 mi WSW 12.7 mph - N/A   Clear
11:53 AM 77.2 °F 55.6 °F 47% 30.06 in 10.0 mi WSW 11.5 mph 18.4 mph N/A   Clear
12:14 PM 78.1 °F 55.8 °F 46% 30.05 in 10.0 mi West 13.8 mph 17.3 mph N/A   Clear
12:34 PM 78.3 °F 57.2 °F 48% 30.05 in 7.0 mi West 8.1 mph 17.3 mph N/A   Clear
12:53 PM 78.8 °F 56.5 °F 46% 30.05 in 10.0 mi WSW 8.1 mph 17.3 mph N/A   Clear
1:14 PM 79.7 °F 55.4 °F 43% 30.05 in 10.0 mi WSW 10.4 mph 17.3 mph N/A   Clear
1:34 PM 78.8 °F 54.9 °F 44% 30.04 in 10.0 mi WSW 12.7 mph 19.6 mph N/A   Clear
1:53 PM 78.8 °F 54.9 °F 44% 30.04 in 10.0 mi WSW 15.0 mph 20.7 mph N/A   Clear
2:14 PM 78.8 °F 55.6 °F 45% 30.04 in 10.0 mi WSW 12.7 mph 21.9 mph N/A   Clear
2:33 PM 78.8 °F 55.9 °F 45% 30.04 in 10.0 mi WSW 13.8 mph 21.9 mph N/A   Clear
2:53 PM 79.0 °F 57.2 °F 47% 30.04 in 10.0 mi West 10.4 mph 18.4 mph N/A   Clear
3:14 PM 79.7 °F 55.6 °F 43% 30.03 in 10.0 mi West 15.0 mph 23.0 mph N/A   Scattered Clouds
3:33 PM 80.1 °F 48.7 °F 33% 30.03 in 10.0 mi West 11.5 mph 25.3 mph N/A   Clear
3:53 PM 80.8 °F 50.0 °F 34% 30.03 in 10.0 mi West 12.7 mph 17.3 mph N/A   Clear
4:14 PM 80.8 °F 49.1 °F 33% 30.03 in 10.0 mi West 13.8 mph 26.5 mph N/A   Clear
4:33 PM 80.8 °F 48.4 °F 32% 30.03 in 10.0 mi WNW 11.5 mph 20.7 mph N/A   Clear
4:53 PM 80.6 °F 47.3 °F 31% 30.03 in 10.0 mi West 13.8 mph 21.9 mph N/A   Scattered Clouds
5:14 PM 80.2 °F 47.1 °F 31% 30.03 in 10.0 mi West 8.1 mph 18.4 mph N/A   Clear
5:33 PM 79.5 °F 48.4 °F 33% 30.03 in 10.0 mi West 12.7 mph - N/A   Scattered Clouds
5:53 PM 78.8 °F 48.9 °F 35% 30.03 in 10.0 mi WNW 10.4 mph - N/A   Scattered Clouds
6:14 PM 77.9 °F 50.7 °F 39% 30.03 in 10.0 mi WNW 12.7 mph - N/A   Clear
6:33 PM 77.2 °F 50.9 °F 40% 30.04 in 10.0 mi WNW 9.2 mph - N/A   Clear
6:53 PM 76.6 °F 50.7 °F 40% 30.04 in 10.0 mi WNW 9.2 mph - N/A   Clear
7:14 PM 75.6 °F 50.0 °F 41% 30.03 in 10.0 mi WNW 8.1 mph - N/A   Clear
7:33 PM 74.5 °F 50.2 °F 42% 30.04 in 10.0 mi West 6.9 mph - N/A   Clear
7:53 PM 73.6 °F 50.4 °F 44% 30.04 in 10.0 mi West 6.9 mph - N/A   Clear
8:14 PM 72.7 °F 50.5 °F 46% 30.05 in 10.0 mi West 6.9 mph - N/A   Clear
8:33 PM 72.5 °F 50.2 °F 45% 30.05 in 10.0 mi West 5.8 mph - N/A   Clear
8:53 PM 72.1 °F 49.6 °F 45% 30.06 in 10.0 mi West 4.6 mph - N/A   Clear
9:14 PM 71.2 °F 49.5 °F 46% 30.06 in 10.0 mi West 4.6 mph - N/A   Clear
9:33 PM 70.9 °F 49.5 °F 47% 30.06 in 10.0 mi WSW 4.6 mph - N/A   Clear
9:53 PM 70.0 °F 50.2 °F 49% 30.06 in 10.0 mi Calm Calm - N/A   Clear
10:14 PM 68.5 °F 51.3 °F 54% 30.06 in 10.0 mi Calm Calm - N/A   Clear
10:33 PM 68.4 °F 50.9 °F 54% 30.05 in 10.0 mi West 3.5 mph - N/A   Clear
10:53 PM 68.4 °F 50.4 °F 53% 30.05 in 10.0 mi WSW 3.5 mph - N/A   Clear
11:14 PM 67.5 °F 50.5 °F 55% 30.05 in 10.0 mi West 3.5 mph - N/A   Clear
11:33 PM 66.9 °F 50.5 °F 56% 30.05 in 10.0 mi WSW 4.6 mph - N/A   Clear
11:53 PM 65.7 °F 51.1 °F 59% 30.06 in 10.0 mi West 10.4 mph 18.4 mph N/A   Clear